Regional Weather Roundup
Issued by NWS Goodland, KS

Home | Current Version | Previous Version | Text Only | Print | Product List | Glossary On
Versions: 1 2 3 4 5 6 7 8 9 10 11 12 13 14 15 16 17 18 19 20 21 22 23 24 25 26 27 28 29 30 31 32 33 34 35 36 37 38 39 40 41 42 43 44 45 46 47 48 49 50
000
ASUS43 KGLD 191308
RWRGLD

GOODLAND FORECAST AREA HOURLY WEATHER ROUNDUP
NATIONAL WEATHER SERVICE GOODLAND KS
600 AM MST THU JAN 19 2017

...OFFICIAL OBSERVATIONS...

CITY           SKY/WX    TMP DP  RH WIND       PRES   REMARKS
GOODLAND KS    CLEAR     24  23  96 SE6       29.62S
HILL CITY KS   CLOUDY    43  43 100 E5        29.66F FOG
IMPERIAL NEB   CLOUDY    21  18  88 SE6       29.62F
MCCOOK NEB     FOG       34  34 100 CALM      29.66S VSB 1/4
AKRON CO       CLOUDY    24  19  81 W12       29.60F WCI  13
BURLINGTON CO  CLOUDY    27  20  75 CALM      29.60F
LIMON CO       CLOUDY    19  13  77 NW5       29.62S
$$

...UNOFFICIAL OBSERVATIONS...

CITY           SKY/WX    TMP DP  RH WIND       PRES   REMARKS
LENORA KS        N/A     40  32  73 CALM        N/A
SHARON SPRINGS   N/A     30  29  94 CALM        N/A
TRIBUNE KS     CLOUDY    30  30 100 N5        29.64  VSB 1/4
TRENTON NEB      N/A     27  32 100 CALM        N/A
KIT CARSON CO    N/A     27  21  78 MISG        N/A
YUMA CO        FAIR      18  12  79 W12       29.60F WCI   5
$$




USA.gov is the U.S. government's official web portal to all federal, state and local government web resources and services.